Year,Month,Day,Hour,Minute,Value (Times are PST for temperature in C)
2019,06,25,00,00,12.30
2019,06,25,00,01,12.30
2019,06,25,00,02,12.30
2019,06,25,00,03,12.30
2019,06,25,00,04,12.30
2019,06,25,00,05,12.20
2019,06,25,00,06,12.20
2019,06,25,00,07,12.20
2019,06,25,00,08,12.10
2019,06,25,00,09,12.10
2019,06,25,00,10,12.10
2019,06,25,00,11,12.00
2019,06,25,00,12,12.00
2019,06,25,00,13,12.00
2019,06,25,00,14,12.00
2019,06,25,00,15,11.90
2019,06,25,00,16,11.90
2019,06,25,00,17,11.90
2019,06,25,00,18,11.90
2019,06,25,00,19,11.90
2019,06,25,00,20,11.90
2019,06,25,00,21,11.90
2019,06,25,00,22,11.80
2019,06,25,00,23,11.80
2019,06,25,00,24,11.80
2019,06,25,00,25,11.80
2019,06,25,00,26,11.80
2019,06,25,00,27,11.80
2019,06,25,00,28,11.80
2019,06,25,00,29,11.70
2019,06,25,00,30,11.70
2019,06,25,00,31,11.70
2019,06,25,00,32,11.70
2019,06,25,00,33,11.70
2019,06,25,00,34,11.70
2019,06,25,00,35,11.60
2019,06,25,00,36,11.60
2019,06,25,00,37,11.60
2019,06,25,00,38,11.60
2019,06,25,00,39,11.50
2019,06,25,00,40,11.50
2019,06,25,00,41,11.50
2019,06,25,00,42,11.50
2019,06,25,00,43,11.40
2019,06,25,00,44,11.40
2019,06,25,00,45,11.40
2019,06,25,00,46,11.40
2019,06,25,00,47,11.40
2019,06,25,00,48,11.30
2019,06,25,00,49,11.30
2019,06,25,00,50,11.30
2019,06,25,00,51,11.30
2019,06,25,00,52,11.30
2019,06,25,00,53,11.30
2019,06,25,00,54,11.20
2019,06,25,00,55,11.20
2019,06,25,00,56,11.20
2019,06,25,00,57,11.20
2019,06,25,00,58,11.20
2019,06,25,00,59,11.20
2019,06,25,01,00,11.20
2019,06,25,01,01,11.20
2019,06,25,01,02,11.20
2019,06,25,01,03,11.20
2019,06,25,01,04,11.10
2019,06,25,01,05,11.10
2019,06,25,01,06,11.10
2019,06,25,01,07,11.10
2019,06,25,01,08,11.10
2019,06,25,01,09,11.10
2019,06,25,01,10,11.10
2019,06,25,01,11,11.10
2019,06,25,01,12,11.00
2019,06,25,01,13,11.00
2019,06,25,01,14,11.00
2019,06,25,01,15,11.00
2019,06,25,01,16,11.00
2019,06,25,01,17,11.00
2019,06,25,01,18,10.90
2019,06,25,01,19,10.90
2019,06,25,01,20,10.90
2019,06,25,01,21,10.90
2019,06,25,01,22,10.90
2019,06,25,01,23,10.90
2019,06,25,01,24,10.90
2019,06,25,01,25,10.90
2019,06,25,01,26,10.80
2019,06,25,01,27,10.80
2019,06,25,01,28,10.80
2019,06,25,01,29,10.80
2019,06,25,01,30,10.80
2019,06,25,01,31,10.80
2019,06,25,01,32,10.80
2019,06,25,01,33,10.80
2019,06,25,01,34,10.70
2019,06,25,01,35,10.70
2019,06,25,01,36,10.70
2019,06,25,01,37,10.70
2019,06,25,01,38,10.70
2019,06,25,01,39,10.70
2019,06,25,01,40,10.70
2019,06,25,01,41,10.70
2019,06,25,01,42,10.60
2019,06,25,01,43,10.60
2019,06,25,01,44,10.60
2019,06,25,01,45,10.60
2019,06,25,01,46,10.60
2019,06,25,01,47,10.60
2019,06,25,01,48,10.60
2019,06,25,01,49,10.60
2019,06,25,01,50,10.50
2019,06,25,01,51,10.50
2019,06,25,01,52,10.50
2019,06,25,01,53,10.50
2019,06,25,01,54,10.50
2019,06,25,01,55,10.50
2019,06,25,01,56,10.50
2019,06,25,01,57,10.40
2019,06,25,01,58,10.40
2019,06,25,01,59,10.40
2019,06,25,02,00,10.40
2019,06,25,02,01,10.40
2019,06,25,02,02,10.40
2019,06,25,02,03,10.40
2019,06,25,02,04,10.40
2019,06,25,02,05,10.40
2019,06,25,02,06,10.40
2019,06,25,02,07,10.40
2019,06,25,02,08,10.30
2019,06,25,02,09,10.30
2019,06,25,02,10,10.30
2019,06,25,02,11,10.30
2019,06,25,02,12,10.30
2019,06,25,02,13,10.30
2019,06,25,02,14,10.30
2019,06,25,02,15,10.30
2019,06,25,02,16,10.30
2019,06,25,02,17,10.30
2019,06,25,02,18,10.30
2019,06,25,02,19,10.30
2019,06,25,02,20,10.30
2019,06,25,02,21,10.30
2019,06,25,02,22,10.30
2019,06,25,02,23,10.30
2019,06,25,02,24,10.30
2019,06,25,02,25,10.30
2019,06,25,02,26,10.30
2019,06,25,02,27,10.30
2019,06,25,02,28,10.30
2019,06,25,02,29,10.30
2019,06,25,02,30,10.30
2019,06,25,02,31,10.30
2019,06,25,02,32,10.30
2019,06,25,02,33,10.30
2019,06,25,02,34,10.30
2019,06,25,02,35,10.30
2019,06,25,02,36,10.30
2019,06,25,02,37,10.30
2019,06,25,02,38,10.30
2019,06,25,02,39,10.30
2019,06,25,02,40,10.30
2019,06,25,02,41,10.30
2019,06,25,02,42,10.30
2019,06,25,02,43,10.30
2019,06,25,02,44,10.30
2019,06,25,02,45,10.30
2019,06,25,02,46,10.30
2019,06,25,02,47,10.30
2019,06,25,02,48,10.30
2019,06,25,02,49,10.30
2019,06,25,02,50,10.30
2019,06,25,02,51,10.30
2019,06,25,02,52,10.30
2019,06,25,02,53,10.30
2019,06,25,02,54,10.30
2019,06,25,02,55,10.30
2019,06,25,02,56,10.30
2019,06,25,02,57,10.30
2019,06,25,02,58,10.30
2019,06,25,02,59,10.30
2019,06,25,03,00,10.30
2019,06,25,03,01,10.30
2019,06,25,03,02,10.30
2019,06,25,03,03,10.20
2019,06,25,03,04,10.20
2019,06,25,03,05,10.30
2019,06,25,03,06,10.20
2019,06,25,03,07,10.20
2019,06,25,03,08,10.30
2019,06,25,03,09,10.20
2019,06,25,03,10,10.20
2019,06,25,03,11,10.20
2019,06,25,03,12,10.20
2019,06,25,03,13,10.30
2019,06,25,03,14,10.20
2019,06,25,03,15,10.20
2019,06,25,03,16,10.30
2019,06,25,03,17,10.30
2019,06,25,03,18,10.20
2019,06,25,03,19,10.30
2019,06,25,03,20,10.20
2019,06,25,03,21,10.30
2019,06,25,03,22,10.20
2019,06,25,03,23,10.20
2019,06,25,03,24,10.20
2019,06,25,03,25,10.20
2019,06,25,03,26,10.20
2019,06,25,03,27,10.20
2019,06,25,03,28,10.20
2019,06,25,03,29,10.20
2019,06,25,03,30,10.20
2019,06,25,03,31,10.20
2019,06,25,03,32,10.20
2019,06,25,03,33,10.20
2019,06,25,03,34,10.20
2019,06,25,03,35,10.20
2019,06,25,03,36,10.20
2019,06,25,03,37,10.20
2019,06,25,03,38,10.20
2019,06,25,03,39,10.20
2019,06,25,03,40,10.20
2019,06,25,03,41,10.20
2019,06,25,03,42,10.20
2019,06,25,03,43,10.20
2019,06,25,03,44,10.20
2019,06,25,03,45,10.20
2019,06,25,03,46,10.20
2019,06,25,03,47,10.20
2019,06,25,03,48,10.20
2019,06,25,03,49,10.10
2019,06,25,03,50,10.10
2019,06,25,03,51,10.10
2019,06,25,03,52,10.10
2019,06,25,03,53,10.10
2019,06,25,03,54,10.10
2019,06,25,03,55,10.10
2019,06,25,03,56,10.10
2019,06,25,03,57,10.10
2019,06,25,03,58,10.10
2019,06,25,03,59,10.00
2019,06,25,04,00,10.00
2019,06,25,04,01,10.00
2019,06,25,04,02,10.00
2019,06,25,04,03,10.00
2019,06,25,04,04,10.00
2019,06,25,04,05,10.10
2019,06,25,04,06,10.10
2019,06,25,04,07,10.00
2019,06,25,04,08,10.00
2019,06,25,04,09,10.00
2019,06,25,04,10,10.00
2019,06,25,04,11,10.00
2019,06,25,04,12,10.00
2019,06,25,04,13,10.00
2019,06,25,04,14,10.00
2019,06,25,04,15,10.00
2019,06,25,04,16,10.00
2019,06,25,04,17,10.00
2019,06,25,04,18,10.00
2019,06,25,04,19,10.10
2019,06,25,04,20,10.10
2019,06,25,04,21,10.10
2019,06,25,04,22,10.10
2019,06,25,04,23,10.10
2019,06,25,04,24,10.10
2019,06,25,04,25,10.10
2019,06,25,04,26,10.10
2019,06,25,04,27,10.10
2019,06,25,04,28,10.20
2019,06,25,04,29,10.20
2019,06,25,04,30,10.20
2019,06,25,04,31,10.20
2019,06,25,04,32,10.20
2019,06,25,04,33,10.20
2019,06,25,04,34,10.20
2019,06,25,04,35,10.20
2019,06,25,04,36,10.20
2019,06,25,04,37,10.20
2019,06,25,04,38,10.20
2019,06,25,04,39,10.20
2019,06,25,04,40,10.20
2019,06,25,04,41,10.20
2019,06,25,04,42,10.20
2019,06,25,04,43,10.10
2019,06,25,04,44,10.10
2019,06,25,04,45,10.10
2019,06,25,04,46,10.10
2019,06,25,04,47,10.10
2019,06,25,04,48,10.10
2019,06,25,04,49,10.10
2019,06,25,04,50,10.10
2019,06,25,04,51,10.00
2019,06,25,04,52,10.00
2019,06,25,04,53,10.00
2019,06,25,04,54,9.90
2019,06,25,04,55,9.90
2019,06,25,04,56,9.90
2019,06,25,04,57,9.90
2019,06,25,04,58,9.80
2019,06,25,04,59,9.80
2019,06,25,05,00,9.80
2019,06,25,05,01,9.80
2019,06,25,05,02,9.70
2019,06,25,05,03,9.70
2019,06,25,05,04,9.70
2019,06,25,05,05,9.70
2019,06,25,05,06,9.60
2019,06,25,05,07,9.60
2019,06,25,05,08,9.60
2019,06,25,05,09,9.50
2019,06,25,05,10,9.50
2019,06,25,05,11,9.50
2019,06,25,05,12,9.50
2019,06,25,05,13,9.40
2019,06,25,05,14,9.40
2019,06,25,05,15,9.40
2019,06,25,05,16,9.40
2019,06,25,05,17,9.30
2019,06,25,05,18,9.30
2019,06,25,05,19,9.30
2019,06,25,05,20,9.30
2019,06,25,05,21,9.30
2019,06,25,05,22,9.20
2019,06,25,05,23,9.20
2019,06,25,05,24,9.20
2019,06,25,05,25,9.20
2019,06,25,05,26,9.20
2019,06,25,05,27,9.10
2019,06,25,05,28,9.10
2019,06,25,05,29,9.10
2019,06,25,05,30,9.10
2019,06,25,05,31,9.10
2019,06,25,05,32,9.10
2019,06,25,05,33,9.00
2019,06,25,05,34,9.00
2019,06,25,05,35,9.00
2019,06,25,05,36,9.00
2019,06,25,05,37,9.00
2019,06,25,05,38,9.00
2019,06,25,05,39,8.90
2019,06,25,05,40,8.90
2019,06,25,05,41,8.90
2019,06,25,05,42,8.90
2019,06,25,05,43,8.90
2019,06,25,05,44,8.90
2019,06,25,05,45,8.90
2019,06,25,05,46,8.90
2019,06,25,05,47,8.80
2019,06,25,05,48,8.80
2019,06,25,05,49,8.80
2019,06,25,05,50,8.80
2019,06,25,05,51,8.80
2019,06,25,05,52,8.80
2019,06,25,05,53,8.80
2019,06,25,05,54,8.80
2019,06,25,05,55,8.80
2019,06,25,05,56,8.80
2019,06,25,05,57,8.80
2019,06,25,05,58,8.80
2019,06,25,05,59,8.80
2019,06,25,06,00,8.80
2019,06,25,06,01,8.80
2019,06,25,06,02,8.80
2019,06,25,06,03,8.80
2019,06,25,06,04,8.80
2019,06,25,06,05,8.80
2019,06,25,06,06,8.80
2019,06,25,06,07,8.80
2019,06,25,06,08,8.80
2019,06,25,06,09,8.80
2019,06,25,06,10,8.80
2019,06,25,06,11,8.80
2019,06,25,06,12,8.80
2019,06,25,06,13,8.80
2019,06,25,06,14,8.90
2019,06,25,06,15,8.90
2019,06,25,06,16,8.90
2019,06,25,06,17,9.00
2019,06,25,06,18,9.00
2019,06,25,06,19,9.00
2019,06,25,06,20,9.00
2019,06,25,06,21,9.10
2019,06,25,06,22,9.10
2019,06,25,06,23,9.10
2019,06,25,06,24,9.20
2019,06,25,06,25,9.20
2019,06,25,06,26,9.20
2019,06,25,06,27,9.30
2019,06,25,06,28,9.30
2019,06,25,06,29,9.40
2019,06,25,06,30,9.40
2019,06,25,06,31,9.40
2019,06,25,06,32,9.50
2019,06,25,06,33,9.50
2019,06,25,06,34,9.60
2019,06,25,06,35,9.60
2019,06,25,06,36,9.70
2019,06,25,06,37,9.80
2019,06,25,06,38,9.80
2019,06,25,06,39,9.90
2019,06,25,06,40,10.00
2019,06,25,06,41,10.10
2019,06,25,06,42,10.10
2019,06,25,06,43,10.20
2019,06,25,06,44,10.30
2019,06,25,06,45,10.40
2019,06,25,06,46,10.40
2019,06,25,06,47,10.60
2019,06,25,06,48,10.70
2019,06,25,06,49,10.80
2019,06,25,06,50,10.90
2019,06,25,06,51,10.90
2019,06,25,06,52,11.00
2019,06,25,06,53,11.10
2019,06,25,06,54,11.20
2019,06,25,06,55,11.30
2019,06,25,06,56,11.40
2019,06,25,06,57,11.50
2019,06,25,06,58,11.60
2019,06,25,06,59,11.70
2019,06,25,07,00,11.80
2019,06,25,07,01,11.90
2019,06,25,07,02,12.00
2019,06,25,07,03,12.10
2019,06,25,07,04,12.20
2019,06,25,07,05,12.20
2019,06,25,07,06,12.30
2019,06,25,07,07,12.50
2019,06,25,07,08,12.60
2019,06,25,07,09,12.70
2019,06,25,07,10,12.70
2019,06,25,07,11,12.80
2019,06,25,07,12,12.90
2019,06,25,07,13,13.00
2019,06,25,07,14,13.00
2019,06,25,07,15,13.10
2019,06,25,07,16,13.10
2019,06,25,07,17,13.20
2019,06,25,07,18,13.30
2019,06,25,07,19,13.30
2019,06,25,07,20,13.40
2019,06,25,07,21,13.50
2019,06,25,07,22,13.60
2019,06,25,07,23,13.70
2019,06,25,07,24,13.70
2019,06,25,07,25,13.80
2019,06,25,07,26,13.90
2019,06,25,07,27,14.00
2019,06,25,07,28,14.10
2019,06,25,07,29,14.10
2019,06,25,07,30,14.20
2019,06,25,07,31,14.30
2019,06,25,07,32,14.30
2019,06,25,07,33,14.40
2019,06,25,07,34,14.50
2019,06,25,07,35,14.50
2019,06,25,07,36,14.60
2019,06,25,07,37,14.70
2019,06,25,07,38,14.80
2019,06,25,07,39,14.80
2019,06,25,07,40,14.80
2019,06,25,07,41,14.90
2019,06,25,07,42,15.00
2019,06,25,07,43,15.10
2019,06,25,07,44,15.20
2019,06,25,07,45,15.20
2019,06,25,07,46,15.30
2019,06,25,07,47,15.30
2019,06,25,07,48,15.30
2019,06,25,07,49,15.30
2019,06,25,07,50,15.30
2019,06,25,07,51,15.30
2019,06,25,07,52,15.30
2019,06,25,07,53,15.40
2019,06,25,07,54,15.40
2019,06,25,07,55,15.40
2019,06,25,07,56,15.40
2019,06,25,07,57,15.50
2019,06,25,07,58,15.50
2019,06,25,07,59,15.50
2019,06,25,08,00,15.60
2019,06,25,08,01,15.60
2019,06,25,08,02,15.70
2019,06,25,08,03,15.80
2019,06,25,08,04,15.80
2019,06,25,08,05,15.90
2019,06,25,08,06,15.90
2019,06,25,08,07,16.00
2019,06,25,08,08,16.00
2019,06,25,08,09,16.00
2019,06,25,08,10,16.00
2019,06,25,08,11,16.10
2019,06,25,08,12,16.10
2019,06,25,08,13,16.10
2019,06,25,08,14,16.10
2019,06,25,08,15,16.10
2019,06,25,08,16,16.10
2019,06,25,08,17,16.10
2019,06,25,08,18,16.20
2019,06,25,08,19,16.20
2019,06,25,08,20,16.20
2019,06,25,08,21,16.20
2019,06,25,08,22,16.20
2019,06,25,08,23,16.20
2019,06,25,08,24,16.30
2019,06,25,08,25,16.30
2019,06,25,08,26,16.30
2019,06,25,08,27,16.30
2019,06,25,08,28,16.20
2019,06,25,08,29,16.30
2019,06,25,08,30,16.30
2019,06,25,08,31,16.30
2019,06,25,08,32,16.30
2019,06,25,08,33,16.30
2019,06,25,08,34,16.40
2019,06,25,08,35,16.40
2019,06,25,08,36,16.40
2019,06,25,08,37,16.50
2019,06,25,08,38,16.60
2019,06,25,08,39,16.70
2019,06,25,08,40,16.70
2019,06,25,08,41,16.80
2019,06,25,08,42,16.80
2019,06,25,08,43,16.80
2019,06,25,08,44,16.80
2019,06,25,08,45,16.80
2019,06,25,08,46,16.90
2019,06,25,08,47,16.90
2019,06,25,08,48,16.90
2019,06,25,08,49,17.00
2019,06,25,08,50,16.90
2019,06,25,08,51,16.90
2019,06,25,08,52,16.90
2019,06,25,08,53,16.80
2019,06,25,08,54,16.80
2019,06,25,08,55,16.70
2019,06,25,08,56,16.70
2019,06,25,08,57,16.70
2019,06,25,08,58,16.70
2019,06,25,08,59,16.60
2019,06,25,09,00,16.70
2019,06,25,09,01,16.70
2019,06,25,09,02,16.70
2019,06,25,09,03,16.70
2019,06,25,09,04,16.60
2019,06,25,09,05,16.60
2019,06,25,09,06,16.60
2019,06,25,09,07,16.60
2019,06,25,09,08,16.60
2019,06,25,09,09,16.60
2019,06,25,09,10,16.60
2019,06,25,09,11,16.70
2019,06,25,09,12,16.70
2019,06,25,09,13,16.80
2019,06,25,09,14,16.90
2019,06,25,09,15,17.00
2019,06,25,09,16,17.00
2019,06,25,09,17,17.00
2019,06,25,09,18,17.00
2019,06,25,09,19,17.00
2019,06,25,09,20,17.00
2019,06,25,09,21,16.90
2019,06,25,09,22,16.80
2019,06,25,09,23,16.80
2019,06,25,09,24,16.80
2019,06,25,09,25,16.90
2019,06,25,09,26,16.90
2019,06,25,09,27,17.00
2019,06,25,09,28,17.00
2019,06,25,09,29,17.10
2019,06,25,09,30,17.20
2019,06,25,09,31,17.30
2019,06,25,09,32,17.40
2019,06,25,09,33,17.50
2019,06,25,09,34,17.60
2019,06,25,09,35,17.60
2019,06,25,09,36,17.70
2019,06,25,09,37,17.70
2019,06,25,09,38,17.70
2019,06,25,09,39,17.70
2019,06,25,09,40,17.80
2019,06,25,09,41,17.80
2019,06,25,09,42,17.90
2019,06,25,09,43,17.90
2019,06,25,09,44,17.90
2019,06,25,09,45,17.80
2019,06,25,09,46,17.80
2019,06,25,09,47,17.60
2019,06,25,09,48,17.50
2019,06,25,09,49,17.40
2019,06,25,09,50,17.30
2019,06,25,09,51,17.20
2019,06,25,09,52,17.20
2019,06,25,09,53,17.30
2019,06,25,09,54,17.40
2019,06,25,09,55,17.40
2019,06,25,09,56,17.40
2019,06,25,09,57,17.50
2019,06,25,09,58,17.60
2019,06,25,09,59,17.60
2019,06,25,10,00,17.60
2019,06,25,10,01,17.50
2019,06,25,10,02,17.50
2019,06,25,10,03,17.40
2019,06,25,10,04,17.40
2019,06,25,10,05,17.30
2019,06,25,10,06,17.20
2019,06,25,10,07,17.20
2019,06,25,10,08,17.20
2019,06,25,10,09,17.20
2019,06,25,10,10,17.30
2019,06,25,10,11,17.30
2019,06,25,10,12,17.40
2019,06,25,10,13,17.40
2019,06,25,10,14,17.50
2019,06,25,10,15,17.50
2019,06,25,10,16,17.50
2019,06,25,10,17,17.50
2019,06,25,10,18,17.60
2019,06,25,10,19,17.60
2019,06,25,10,20,17.70
2019,06,25,10,21,17.80
2019,06,25,10,22,17.90
2019,06,25,10,23,18.00
2019,06,25,10,24,18.00
2019,06,25,10,25,18.10
2019,06,25,10,26,18.10
2019,06,25,10,27,18.20
2019,06,25,10,28,18.20
2019,06,25,10,29,18.20
2019,06,25,10,30,18.20
2019,06,25,10,31,18.10
2019,06,25,10,32,18.10
2019,06,25,10,33,18.10
2019,06,25,10,34,18.00
2019,06,25,10,35,18.00
2019,06,25,10,36,18.00
2019,06,25,10,37,17.90
2019,06,25,10,38,17.90
2019,06,25,10,39,17.90
2019,06,25,10,40,17.90
2019,06,25,10,41,17.80
2019,06,25,10,42,17.80
2019,06,25,10,43,17.70
2019,06,25,10,44,17.70
2019,06,25,10,45,17.70
2019,06,25,10,46,17.60
2019,06,25,10,47,17.60
2019,06,25,10,48,17.50
2019,06,25,10,49,17.40
2019,06,25,10,50,17.40
2019,06,25,10,51,17.30
2019,06,25,10,52,17.30
2019,06,25,10,53,17.30
2019,06,25,10,54,17.40
2019,06,25,10,55,17.60
2019,06,25,10,56,17.80
2019,06,25,10,57,17.90
2019,06,25,10,58,18.00
2019,06,25,10,59,18.10
2019,06,25,11,00,18.20
2019,06,25,11,01,18.20
2019,06,25,11,02,18.10
2019,06,25,11,03,18.20
2019,06,25,11,04,18.30
2019,06,25,11,05,18.40
2019,06,25,11,06,18.50
2019,06,25,11,07,18.60
2019,06,25,11,08,18.70
2019,06,25,11,09,18.70
2019,06,25,11,10,18.70
2019,06,25,11,11,18.70
2019,06,25,11,12,18.60
2019,06,25,11,13,18.50
2019,06,25,11,14,18.30
2019,06,25,11,15,18.20
2019,06,25,11,16,18.00
2019,06,25,11,17,17.90
2019,06,25,11,18,17.80
2019,06,25,11,19,17.80
2019,06,25,11,20,17.80
2019,06,25,11,21,17.70
2019,06,25,11,22,17.80
2019,06,25,11,23,17.80
2019,06,25,11,24,17.80
2019,06,25,11,25,18.00
2019,06,25,11,26,18.20
2019,06,25,11,27,18.40
2019,06,25,11,28,18.50
2019,06,25,11,29,18.60
2019,06,25,11,30,18.60
2019,06,25,11,31,18.60
2019,06,25,11,32,18.50
2019,06,25,11,33,18.50
2019,06,25,11,34,18.40
2019,06,25,11,35,18.40
2019,06,25,11,36,18.40
2019,06,25,11,37,18.40
2019,06,25,11,38,18.30
2019,06,25,11,39,18.30
2019,06,25,11,40,18.30
2019,06,25,11,41,18.40
2019,06,25,11,42,18.40
2019,06,25,11,43,18.50
2019,06,25,11,44,18.60
2019,06,25,11,45,18.70
2019,06,25,11,46,18.60
2019,06,25,11,47,18.50
2019,06,25,11,48,18.40
2019,06,25,11,49,18.30
2019,06,25,11,50,18.30
2019,06,25,11,51,18.30
2019,06,25,11,52,18.40
2019,06,25,11,53,18.40
2019,06,25,11,54,18.50
2019,06,25,11,55,18.40
2019,06,25,11,56,18.40
2019,06,25,11,57,18.30
2019,06,25,11,58,18.20
2019,06,25,11,59,18.20
2019,06,25,12,00,18.10
2019,06,25,12,01,18.10
2019,06,25,12,02,18.00
2019,06,25,12,03,18.00
2019,06,25,12,04,17.90
2019,06,25,12,05,17.70
2019,06,25,12,06,17.60
2019,06,25,12,07,17.50
2019,06,25,12,08,17.40
2019,06,25,12,09,17.30
2019,06,25,12,10,17.30
2019,06,25,12,11,17.30
2019,06,25,12,12,17.30
2019,06,25,12,13,17.30
2019,06,25,12,14,17.40
2019,06,25,12,15,17.50
2019,06,25,12,16,17.60
2019,06,25,12,17,17.70
2019,06,25,12,18,17.90
2019,06,25,12,19,18.00
2019,06,25,12,20,18.20
2019,06,25,12,21,18.30
2019,06,25,12,22,18.40
2019,06,25,12,23,18.40
2019,06,25,12,24,18.50
2019,06,25,12,25,18.60
2019,06,25,12,26,18.50
2019,06,25,12,27,18.60
2019,06,25,12,28,18.70
2019,06,25,12,29,18.70
2019,06,25,12,30,18.70
2019,06,25,12,31,18.70
2019,06,25,12,32,18.70
2019,06,25,12,33,18.70
2019,06,25,12,34,18.70
2019,06,25,12,35,18.60
2019,06,25,12,36,18.70
2019,06,25,12,37,18.70
2019,06,25,12,38,18.70
2019,06,25,12,39,18.70
2019,06,25,12,40,18.70
2019,06,25,12,41,18.70
2019,06,25,12,42,18.70
2019,06,25,12,43,18.70
2019,06,25,12,44,18.60
2019,06,25,12,45,18.60
2019,06,25,12,46,18.60
2019,06,25,12,47,18.50
2019,06,25,12,48,18.50
2019,06,25,12,49,18.50
2019,06,25,12,50,18.40
2019,06,25,12,51,18.40
2019,06,25,12,52,18.50
2019,06,25,12,53,18.50
2019,06,25,12,54,18.60
2019,06,25,12,55,18.60
2019,06,25,12,56,18.60
2019,06,25,12,57,18.60
2019,06,25,12,58,18.70
2019,06,25,12,59,18.70
2019,06,25,13,00,18.60
2019,06,25,13,01,18.60
2019,06,25,13,02,18.60
2019,06,25,13,03,18.50
2019,06,25,13,04,18.50
2019,06,25,13,05,18.40
2019,06,25,13,06,18.40
2019,06,25,13,07,18.40
2019,06,25,13,08,18.50
2019,06,25,13,09,18.50
2019,06,25,13,10,18.60
2019,06,25,13,11,18.70
2019,06,25,13,12,18.80
2019,06,25,13,13,18.80
2019,06,25,13,14,18.90
2019,06,25,13,15,18.90
2019,06,25,13,16,19.00
2019,06,25,13,17,19.00
2019,06,25,13,18,19.00
2019,06,25,13,19,19.00
2019,06,25,13,20,19.00
2019,06,25,13,21,19.00
2019,06,25,13,22,19.10
2019,06,25,13,23,19.10
2019,06,25,13,24,19.20
2019,06,25,13,25,19.20
2019,06,25,13,26,19.20
2019,06,25,13,27,19.10
2019,06,25,13,28,19.20
2019,06,25,13,29,19.30
2019,06,25,13,30,19.40
2019,06,25,13,31,19.40
2019,06,25,13,32,19.50
2019,06,25,13,33,19.50
2019,06,25,13,34,19.50
2019,06,25,13,35,19.40
2019,06,25,13,36,19.40
2019,06,25,13,37,19.40
2019,06,25,13,38,19.60
2019,06,25,13,39,19.60
2019,06,25,13,40,19.60
2019,06,25,13,41,19.60
2019,06,25,13,42,19.60
2019,06,25,13,43,19.60
2019,06,25,13,44,19.60
2019,06,25,13,45,19.60
2019,06,25,13,46,19.60
2019,06,25,13,47,19.70
2019,06,25,13,48,19.70
2019,06,25,13,49,19.80
2019,06,25,13,50,19.80
2019,06,25,13,51,19.80
2019,06,25,13,52,19.80
2019,06,25,13,53,19.80
2019,06,25,13,54,19.70
2019,06,25,13,55,19.70
2019,06,25,13,56,19.70
2019,06,25,13,57,19.80
2019,06,25,13,58,19.80
2019,06,25,13,59,19.80
2019,06,25,14,00,19.70
2019,06,25,14,01,19.60
2019,06,25,14,02,19.60
2019,06,25,14,03,19.50
2019,06,25,14,04,19.50
2019,06,25,14,05,19.50
2019,06,25,14,06,19.50
2019,06,25,14,07,19.50
2019,06,25,14,08,19.50
2019,06,25,14,09,19.50
2019,06,25,14,10,19.60
2019,06,25,14,11,19.60
2019,06,25,14,12,19.60
2019,06,25,14,13,19.50
2019,06,25,14,14,19.40
2019,06,25,14,15,19.30
2019,06,25,14,16,19.30
2019,06,25,14,17,19.10
2019,06,25,14,18,19.00
2019,06,25,14,19,18.90
2019,06,25,14,20,18.90
2019,06,25,14,21,18.90
2019,06,25,14,22,19.00
2019,06,25,14,23,18.90
2019,06,25,14,24,18.90
2019,06,25,14,25,19.00
2019,06,25,14,26,19.00
2019,06,25,14,27,19.00
2019,06,25,14,28,19.10
2019,06,25,14,29,19.10
2019,06,25,14,30,19.20
2019,06,25,14,31,19.20
2019,06,25,14,32,19.20
2019,06,25,14,33,19.20
2019,06,25,14,34,19.20
2019,06,25,14,35,19.30
2019,06,25,14,36,19.30
2019,06,25,14,37,19.30
2019,06,25,14,38,19.40
2019,06,25,14,39,19.50
2019,06,25,14,40,19.40
2019,06,25,14,41,19.40
2019,06,25,14,42,19.30
2019,06,25,14,43,19.30
2019,06,25,14,44,19.20
2019,06,25,14,45,19.20
2019,06,25,14,46,19.20
2019,06,25,14,47,19.10
2019,06,25,14,48,19.10
2019,06,25,14,49,19.20
2019,06,25,14,50,19.20
2019,06,25,14,51,19.20
2019,06,25,14,52,19.20
2019,06,25,14,53,19.30
2019,06,25,14,54,19.30
2019,06,25,14,55,19.40
2019,06,25,14,56,19.50
2019,06,25,14,57,19.60
2019,06,25,14,58,19.70
2019,06,25,14,59,19.70
2019,06,25,15,00,19.70
2019,06,25,15,01,19.70
2019,06,25,15,02,19.70
2019,06,25,15,03,19.70
2019,06,25,15,04,19.60
2019,06,25,15,05,19.60
2019,06,25,15,06,19.50
2019,06,25,15,07,19.40
2019,06,25,15,08,19.40
2019,06,25,15,09,19.40
2019,06,25,15,10,19.30
2019,06,25,15,11,19.30
2019,06,25,15,12,19.20
2019,06,25,15,13,19.20
2019,06,25,15,14,19.10
2019,06,25,15,15,19.10
2019,06,25,15,16,19.10
2019,06,25,15,17,19.10
2019,06,25,15,18,19.00
2019,06,25,15,19,19.00
2019,06,25,15,20,19.10
2019,06,25,15,21,19.10
2019,06,25,15,22,19.10
2019,06,25,15,23,19.20
2019,06,25,15,24,19.30
2019,06,25,15,25,19.30
2019,06,25,15,26,19.40
2019,06,25,15,27,19.40
2019,06,25,15,28,19.60
2019,06,25,15,29,19.70
2019,06,25,15,30,19.70
2019,06,25,15,31,19.80
2019,06,25,15,32,19.90
2019,06,25,15,33,20.00
2019,06,25,15,34,20.00
2019,06,25,15,35,20.10
2019,06,25,15,36,20.10
2019,06,25,15,37,20.10
2019,06,25,15,38,20.10
2019,06,25,15,39,20.10
2019,06,25,15,40,20.00
2019,06,25,15,41,19.90
2019,06,25,15,42,19.90
2019,06,25,15,43,19.90
2019,06,25,15,44,19.90
2019,06,25,15,45,19.80
2019,06,25,15,46,19.90
2019,06,25,15,47,19.90
2019,06,25,15,48,19.90
2019,06,25,15,49,20.00
2019,06,25,15,50,20.10
2019,06,25,15,51,20.20
2019,06,25,15,52,20.40
2019,06,25,15,53,20.40
2019,06,25,15,54,20.50
2019,06,25,15,55,20.60
2019,06,25,15,56,20.60
2019,06,25,15,57,20.60
2019,06,25,15,58,20.60
2019,06,25,15,59,20.60
2019,06,25,16,00,20.60
2019,06,25,16,01,20.60
2019,06,25,16,02,20.60
2019,06,25,16,03,20.60
2019,06,25,16,04,20.60
2019,06,25,16,05,20.60
2019,06,25,16,06,20.50
2019,06,25,16,07,20.50
2019,06,25,16,08,20.50
2019,06,25,16,09,20.50
2019,06,25,16,10,20.50
2019,06,25,16,11,20.40
2019,06,25,16,12,20.40
2019,06,25,16,13,20.40
2019,06,25,16,14,20.30
2019,06,25,16,15,20.30
2019,06,25,16,16,20.30
2019,06,25,16,17,20.20
2019,06,25,16,18,20.20
2019,06,25,16,19,20.20
2019,06,25,16,20,20.20
2019,06,25,16,21,20.30
2019,06,25,16,22,20.30
2019,06,25,16,23,20.30
2019,06,25,16,24,20.30
2019,06,25,16,25,20.30
2019,06,25,16,26,20.30
2019,06,25,16,27,20.30
2019,06,25,16,28,20.30
2019,06,25,16,29,20.30
2019,06,25,16,30,20.30
2019,06,25,16,31,20.30
2019,06,25,16,32,20.30
2019,06,25,16,33,20.20
2019,06,25,16,34,20.20
2019,06,25,16,35,20.10
2019,06,25,16,36,20.20
2019,06,25,16,37,20.20
2019,06,25,16,38,20.20
2019,06,25,16,39,20.20
2019,06,25,16,40,20.20
2019,06,25,16,41,20.20
2019,06,25,16,42,20.20
2019,06,25,16,43,20.30
2019,06,25,16,44,20.30
2019,06,25,16,45,20.30
2019,06,25,16,46,20.30
2019,06,25,16,47,20.30
2019,06,25,16,48,20.40
2019,06,25,16,49,20.40
2019,06,25,16,50,20.40
2019,06,25,16,51,20.50
2019,06,25,16,52,20.60
2019,06,25,16,53,20.60
2019,06,25,16,54,20.70
2019,06,25,16,55,20.80
2019,06,25,16,56,20.90
2019,06,25,16,57,20.90
2019,06,25,16,58,21.00
2019,06,25,16,59,21.00
2019,06,25,17,00,21.00
2019,06,25,17,01,21.00
2019,06,25,17,02,21.00
2019,06,25,17,03,21.00
2019,06,25,17,04,21.10
2019,06,25,17,05,21.10
2019,06,25,17,06,21.10
2019,06,25,17,07,21.20
2019,06,25,17,08,21.20
2019,06,25,17,09,21.20
2019,06,25,17,10,21.20
2019,06,25,17,11,21.20
2019,06,25,17,12,21.20
2019,06,25,17,13,21.20
2019,06,25,17,14,21.20
2019,06,25,17,15,21.30
2019,06,25,17,16,21.30
2019,06,25,17,17,21.30
2019,06,25,17,18,21.30
2019,06,25,17,19,21.30
2019,06,25,17,20,21.30
2019,06,25,17,21,21.30
2019,06,25,17,22,21.30
2019,06,25,17,23,21.30
2019,06,25,17,24,21.30